Torna al catalogo

FENGYUN 1C DEB

LostPO
NORAD 31976·DEBRIS·🇨🇳 China

Lanciato May 10, 1999 da Taiyuan Satellite Launch Center

Loading…

Prossimi Passaggi (prossime 24 ore)

TLE

ObsoletoSource: Space-Track

Epoca: Dec 20, 2023, 02:35 UTC

1 31976U 99025CPD 23354.10775787  .00044829  00000-0  77787-2 0  9995
2 31976  99.9970 315.9926 0046967  48.8826 311.6412 14.67291502589258

Traccia FENGYUN 1C DEB in tempo reale con AllMySat

Download on the App Store